Elkins, WV

4:13 AM EST on February 24, 2017 (GMT -0500)
Elkins-Randolph County

Weather History for KEKN - December, 2013

Change the Weather History Date:

Thursday, December 5, 2013

  Actual Average Record
Temperature  
Mean Temperature 53 °F 35 °F  
Max Temperature 71 °F 45 °F 74 °F (2001)
Min Temperature 34 °F 26 °F -9 °F (1974)
Degree Days  
Heating Degree Days 12 30  
Month to date heating degree days 108 145  
Since 1 July heating degree days 1403 1429  
Cooling Degree Days 0 0  
Month to date cooling degree days 0 0  
Year to date cooling degree days 533 475  
Growing Degree Days 2 (Base 50)    
Moisture  
Dew Point 48 °F    
Average Humidity 77    
Maximum Humidity 100    
Minimum Humidity 53    
Precipitation  
Precipitation 0.23 in 0.12 in 0.85 in (1993)
Month to date precipitation 0.23 0.57  
Year to date precipitation 39.97 43.24  
Snow  
Snow 0.00 in - - ()
Month to date snowfall 0.0  
Since 1 September snowfall 6.9  
Snow Depth 0.00 in    
Sea Level Pressure  
Sea Level Pressure 29.97 in    
Wind  
Wind Speed 4 mph (SW)    
Max Wind Speed 18 mph    
Max Gust Speed 26 mph    
Visibility 8 miles    
Events Rain    
T = Trace of Precipitation, MM = Missing Value Source: NWS Daily Summary

Daily Weather History Graph

Daily Weather History Graph

Search for Another Location

Airport or City:

Trip Planner

Search our weather history database for the weather conditions in past years. The results will help you decide how hot, cold, wet, or windy it might be!

Date:

Astronomy

Dec. 05, 2013 Rise Set
Actual Time 7:23 AM EST 4:57 PM EST
Civil Twilight 6:53 AM EST 5:26 PM EST
Nautical Twilight 6:20 AM EST 6:00 PM EST
Astronomical Twilight 5:47 AM EST 6:32 PM EST
Moon 9:42 AM EST (12/5) 8:15 PM EST (12/5)
Length of Visible Light 10h 33m
Length of Day
9h 34m
Waxing Crescent, 10% of the Moon is Illuminated
Dec 5
Waxing Crescent
Dec 9
First Quarter
Dec 17
Full
Dec 25
Last Quarter
Jan 1
New

Hourly Weather History & Observations

Time (EST) Temp. Windchill Dew Point Humidity Pressure Visibility Wind Dir Wind Speed Gust Speed Precip Events Conditions
12:51 AM 37.0 °F - 35.1 °F 93% 30.01 in 10.0 mi Calm Calm - N/A   Clear
1:51 AM 35.1 °F - 33.1 °F 92% 30.01 in 7.0 mi Calm Calm - N/A   Clear
2:10 AM 35.6 °F - 33.8 °F 93% 29.98 in 1.8 mi Calm Calm - N/A   Partly Cloudy
2:19 AM 35.6 °F - 33.8 °F 93% 29.98 in 3.0 mi Calm Calm - N/A   Clear
2:51 AM 35.1 °F - 33.1 °F 92% 30.03 in 9.0 mi Calm Calm - N/A   Clear
3:51 AM 39.9 °F - 37.9 °F 93% 30.01 in 9.0 mi Calm Calm - N/A   Overcast
4:51 AM 41.0 °F - 39.0 °F 93% 30.01 in 10.0 mi Calm Calm - N/A   Mostly Cloudy
5:51 AM 46.0 °F - 43.0 °F 89% 30.01 in 10.0 mi Calm Calm - N/A   Overcast
6:51 AM 46.0 °F - 44.1 °F 93% 30.02 in 10.0 mi Calm Calm - N/A   Scattered Clouds
7:51 AM 46.9 °F - 44.1 °F 90% 30.03 in 10.0 mi Calm Calm - N/A   Partly Cloudy
8:51 AM 50.0 °F - 46.9 °F 89% 30.04 in 10.0 mi Calm Calm - N/A   Mostly Cloudy
9:51 AM 64.0 °F - 51.1 °F 63% 30.01 in 10.0 mi SSE 9.2 mph - N/A   Mostly Cloudy
10:51 AM 66.0 °F - 52.0 °F 60% 30.00 in 10.0 mi South 8.1 mph - N/A   Mostly Cloudy
11:50 AM 32.0 °F 21.2 °F 23.0 °F 69% 29.99 in 10.0 mi West 16.1 mph - N/A   Overcast
11:51 AM 69.1 °F - 52.0 °F 54% 29.96 in 10.0 mi Variable 6.9 mph - N/A   Partly Cloudy
12:51 PM 70.0 °F - 51.1 °F 51% 29.96 in 10.0 mi South 13.8 mph - N/A   Partly Cloudy
1:51 PM 70.0 °F - 51.1 °F 51% 29.95 in 10.0 mi SW 12.7 mph 17.3 mph N/A   Scattered Clouds
2:51 PM 69.1 °F - 51.1 °F 53% 29.94 in 10.0 mi SW 9.2 mph - N/A   Mostly Cloudy
3:51 PM 68.0 °F - 51.1 °F 55% 29.93 in 10.0 mi SW 4.6 mph - N/A   Overcast
4:51 PM 66.9 °F - 51.1 °F 57% 29.95 in 10.0 mi SSW 11.5 mph - N/A   Mostly Cloudy
5:51 PM 63.0 °F - 54.0 °F 72% 29.96 in 10.0 mi SSW 3.5 mph - 0.02 in Rain Light Rain
6:39 PM 59.0 °F - 55.4 °F 88% 29.97 in 10.0 mi WNW 4.6 mph - 0.01 in Rain Light Rain
6:51 PM 59.0 °F - 55.0 °F 87% 29.99 in 10.0 mi NW 4.6 mph - 0.01 in Rain Light Rain
7:12 PM 57.2 °F - 55.4 °F 94% 29.97 in 10.0 mi Calm Calm - 0.00 in   Overcast
7:19 PM 57.2 °F - 55.4 °F 94% 29.97 in 10.0 mi Calm Calm - 0.00 in   Overcast
7:26 PM 57.2 °F - 55.4 °F 94% 29.96 in 10.0 mi Calm Calm - 0.00 in   Overcast
7:51 PM 57.0 °F - 55.9 °F 96% 29.98 in 10.0 mi Calm Calm - 0.00 in   Overcast
8:51 PM 55.9 °F - 55.0 °F 97% 29.95 in 9.0 mi Calm Calm - 0.01 in Rain Light Rain
9:51 PM 55.9 °F - 54.0 °F 93% 29.94 in 3.0 mi Calm Calm - 0.05 in Rain Light Rain
9:56 PM 55.4 °F - 53.6 °F 94% 29.94 in 1.8 mi Calm Calm - 0.01 in Rain Rain
10:37 PM 55.4 °F - 53.6 °F 94% 29.94 in 1.2 mi Calm Calm - 0.04 in Rain Light Rain
10:51 PM 55.9 °F - 55.0 °F 97% 29.93 in 1.5 mi Calm Calm - 0.07 in Rain Rain
11:03 PM 55.4 °F - 55.4 °F 100% 29.93 in 2.5 mi Calm Calm - 0.03 in Rain Rain
11:12 PM 55.4 °F - 55.4 °F 100% 29.94 in 4.0 mi Calm Calm - 0.05 in Rain Rain
11:22 PM 55.4 °F - 53.6 °F 94% 29.94 in 2.0 mi Calm Calm - 0.06 in Rain Rain
11:24 PM 55.4 °F - 53.6 °F 94% 29.93 in 1.8 mi Calm Calm - 0.07 in Rain Light Rain
11:35 PM 55.4 °F - 53.6 °F 94% 29.94 in 2.0 mi Calm Calm - 0.07 in Rain Light Rain
11:38 PM 55.4 °F - 53.6 °F 94% 29.94 in 1.8 mi Calm Calm - 0.07 in   Overcast
11:51 PM 55.0 °F - 54.0 °F 96% 29.93 in 1.0 mi Calm Calm - 0.07 in   Overcast